Weather History for Waukesha, WI

Change the Weather History Date:

Monday, November 12, 2012

  Actual Average Record
Temperature  
Mean Temperature 28 °F -  
Max Temperature 33 °F 44 °F 63 °F (1964)
Min Temperature 23 °F 27 °F 12 °F (1976)
Degree Days  
Heating Degree Days 37    
Moisture  
Dew Point 22 °F    
Average Humidity 79    
Maximum Humidity 100    
Minimum Humidity 64    
Precipitation  
Precipitation 0.00 in - - ()
Sea Level Pressure  
Sea Level Pressure 30.09 in    
Wind  
Wind Speed 14 mph (WSW)    
Max Wind Speed 21 mph    
Max Gust Speed 29 mph    
Visibility 10 miles    
Events Snow    
Averages and records for this station are not official NWS values.
T = Trace of Precipitation, MM = Missing Value Source: NWS Daily Summary

Daily Weather History Graph

Daily Weather History Graph

Search for Another Location

Airport:

Trip Planner

Search our weather history database for the weather conditions in past years. The results will help you decide how hot, cold, wet, or windy it might be!

Date:

Astronomy

Nov. 12, 2012 Rise Set
Actual Time 6:42 AM CST 4:31 PM CST
Civil Twilight 6:11 AM CST 5:02 PM CST
Nautical Twilight 5:37 AM CST 5:36 PM CST
Astronomical Twilight 5:04 AM CST 6:09 PM CST
Moon 5:06 AM CST (11/12) 3:37 PM CST (11/12)
Length of Visible Light 10h 50m
Length of Day
9h 49m
Waning Crescent, 2% of the Moon is Illuminated
Nov 12
Waning Crescent
Nov 13
New
Nov 20
First Quarter
Nov 28
Full
Dec 6
Last Quarter

Hourly Weather History & Observations

Time (CST) Temp. Windchill Dew Point Humidity Pressure Visibility Wind Dir Wind Speed Gust Speed Precip Events Conditions
12:15 AM 33.8 °F 23.5 °F 33.8 °F 100% 29.89 in 10.0 mi WSW 16.1 mph 19.6 mph N/A   Overcast
12:35 AM 33.8 °F 25.3 °F 32.0 °F 93% 29.91 in 10.0 mi WSW 11.5 mph 20.7 mph N/A   Overcast
12:55 AM 32.0 °F 21.6 °F 32.0 °F 100% 29.90 in 10.0 mi West 15.0 mph 19.6 mph N/A   Overcast
1:15 AM 32.0 °F 23.0 °F 32.0 °F 100% 29.91 in 10.0 mi WSW 11.5 mph 18.4 mph N/A   Overcast
1:35 AM 32.0 °F 24.2 °F 32.0 °F 100% 29.91 in 10.0 mi WSW 9.2 mph - N/A   Overcast
1:55 AM 32.0 °F 21.6 °F 32.0 °F 100% 29.92 in 10.0 mi WSW 15.0 mph 18.4 mph N/A   Overcast
2:15 AM 32.0 °F 22.5 °F 30.2 °F 93% 29.94 in 10.0 mi WSW 12.7 mph 19.6 mph N/A   Overcast
2:35 AM 32.0 °F 22.1 °F 30.2 °F 93% 29.95 in 10.0 mi WSW 13.8 mph - N/A   Overcast
2:55 AM 30.2 °F 19.8 °F 28.4 °F 93% 29.91 in 10.0 mi West 13.8 mph 18.4 mph N/A   Overcast
3:15 AM 30.2 °F 19.3 °F 28.4 °F 93% 29.94 in 10.0 mi WSW 15.0 mph - N/A   Overcast
3:35 AM 30.2 °F 18.9 °F 26.6 °F 86% 29.96 in 10.0 mi WSW 16.1 mph 21.9 mph N/A   Overcast
3:55 AM 30.2 °F 19.3 °F 26.6 °F 86% 29.96 in 10.0 mi WSW 15.0 mph 19.6 mph N/A   Overcast
4:15 AM 28.4 °F 17.5 °F 24.8 °F 86% 29.95 in 10.0 mi WSW 13.8 mph 20.7 mph N/A   Overcast
4:35 AM 28.4 °F 17.5 °F 24.8 °F 86% 29.96 in 10.0 mi West 13.8 mph - N/A   Overcast
5:45 AM 26.6 °F 16.2 °F 21.2 °F 80% 29.97 in 10.0 mi WSW 11.5 mph 23.0 mph N/A   Overcast
6:45 AM 26.6 °F 16.2 °F 19.4 °F 74% 30.00 in 10.0 mi WSW 11.5 mph 23.0 mph N/A   Mostly Cloudy
7:45 AM 26.6 °F 14.3 °F 21.2 °F 80% 30.01 in 10.0 mi West 16.1 mph - N/A   Mostly Cloudy
8:45 AM 24.8 °F 10.3 °F 19.4 °F 80% 30.03 in 10.0 mi West 20.7 mph - N/A   Mostly Cloudy
9:45 AM 24.8 °F 10.3 °F 17.6 °F 74% 30.05 in 10.0 mi WSW 20.7 mph - N/A   Overcast
10:45 AM 24.8 °F 10.3 °F 17.6 °F 74% 30.07 in 10.0 mi WSW 20.7 mph - N/A   Overcast
11:45 AM 24.8 °F 11.1 °F 17.6 °F 74% 30.06 in 10.0 mi WSW 18.4 mph - N/A   Mostly Cloudy
1:45 PM 26.6 °F 13.8 °F 19.4 °F 74% 30.06 in 10.0 mi WSW 17.3 mph 28.8 mph N/A   Overcast
2:45 PM 28.4 °F 16.2 °F 19.4 °F 69% 30.07 in 10.0 mi WSW 17.3 mph 25.3 mph N/A   Overcast
3:45 PM 26.6 °F 13.8 °F 17.6 °F 69% 30.11 in 10.0 mi West 17.3 mph 28.8 mph N/A   Overcast
4:45 PM 26.6 °F 13.1 °F 19.4 °F 74% 30.14 in 2.5 mi West 19.6 mph 26.5 mph N/A Snow Light Snow
5:07 PM 26.6 °F 15.2 °F 19.4 °F 74% 30.15 in 10.0 mi West 13.8 mph 20.7 mph N/A Snow Light Snow
5:45 PM 26.6 °F 14.3 °F 19.4 °F 74% 30.17 in 10.0 mi WSW 16.1 mph 18.4 mph N/A Snow Light Snow
6:45 PM 26.6 °F 16.8 °F 19.4 °F 74% 30.19 in 10.0 mi WSW 10.4 mph 21.9 mph N/A   Overcast
7:45 PM 26.6 °F 14.3 °F 17.6 °F 69% 30.21 in 10.0 mi West 16.1 mph 20.7 mph N/A Snow Light Snow
8:15 PM 26.6 °F 16.8 °F 19.4 °F 74% 30.23 in 10.0 mi West 10.4 mph 18.4 mph N/A   Overcast
8:35 PM 26.6 °F 16.2 °F 17.6 °F 69% 30.24 in 10.0 mi West 11.5 mph 16.1 mph N/A   Mostly Cloudy
8:45 PM 24.8 °F 12.4 °F 15.8 °F 69% 30.24 in 10.0 mi West 15.0 mph - N/A   Mostly Cloudy
8:55 PM 26.6 °F 15.2 °F 17.6 °F 69% 30.25 in 10.0 mi West 13.8 mph 23.0 mph N/A   Scattered Clouds
9:15 PM 26.6 °F 15.7 °F 17.6 °F 69% 30.25 in 10.0 mi West 12.7 mph 16.1 mph N/A   Mostly Cloudy
9:35 PM 26.6 °F 15.7 °F 17.6 °F 69% 30.26 in 10.0 mi West 12.7 mph - N/A   Overcast
9:55 PM 24.8 °F 16.1 °F 17.6 °F 74% 30.27 in 10.0 mi West 8.1 mph 18.4 mph N/A   Scattered Clouds
10:15 PM 24.8 °F 13.4 °F 15.8 °F 69% 30.27 in 10.0 mi West 12.7 mph 23.0 mph N/A   Clear
10:35 PM 24.8 °F 14.6 °F 15.8 °F 69% 30.28 in 10.0 mi West 10.4 mph 19.6 mph N/A   Scattered Clouds
10:55 PM 23.0 °F 11.7 °F 15.8 °F 74% 30.29 in 10.0 mi West 11.5 mph 17.3 mph N/A   Overcast
11:15 PM 24.8 °F 13.4 °F 14.0 °F 64% 30.29 in 10.0 mi West 12.7 mph 18.4 mph N/A   Mostly Cloudy
11:35 PM 24.8 °F 15.3 °F 14.0 °F 64% 30.30 in 10.0 mi West 9.2 mph 16.1 mph N/A   Overcast
11:55 PM 24.8 °F 15.3 °F 15.8 °F 69% 30.30 in 10.0 mi West 9.2 mph - N/A   Overcast